User: anonymous   Login
Location: College Park
(38.9810°N, 76.9370°W)
Time: 22:35:51
(UTC-04:00)
Language:

UWE-3 - Orbit

View from above orbital plane
View from above orbital plane
View from above satellite
View from above satellite

Ground track
Ground track

The orbit data is extracted from the following two-line orbital elements,

1 39446U 13066AG  18173.57878557 +.00000194 +00000-0 +32446-4 0  9991
2 39446 097.5922 194.8141 0070851 157.0254 203.4154 14.78215095245322
Epoch (UTC): 22 June 2018 13:53:27
Eccentricity: 0.0070851
inclination: 97.5922°
perigee height: 585 km
apogee height: 684 km
right ascension of ascending node: 194.8141°
argument of perigee: 157.0254°
revolutions per day: 14.78215095
mean anomaly at epoch: 203.4154°
orbit number at epoch: 24532

The dashed part of the orbit path shows where the satellite is in the earth's shadow,  

DLR